Weather History for Weyburn, SK

Change the Weather History Date:

Monday, October 29, 2012

  Actual Average Record
Temperature  
Mean Temperature 29 °F -  
Max Temperature 33 °F - - ()
Min Temperature 26 °F - - ()
Degree Days  
Heating Degree Days 36    
Moisture  
Dew Point 30 °F    
Average Humidity 98    
Maximum Humidity 100    
Minimum Humidity 89    
Precipitation  
Precipitation 0.01 in - - ()
Sea Level Pressure  
Sea Level Pressure 30.07 in    
Wind  
Wind Speed 14 mph ()    
Max Wind Speed 18 mph    
Max Gust Speed -    
T = Trace of Precipitation, MM = Missing Value Source: Averaged Metar Reports

Daily Weather History Graph

Daily Weather History Graph

Search for Another Location

Airport:

Trip Planner

Search our weather history database for the weather conditions in past years. The results will help you decide how hot, cold, wet, or windy it might be!

Date:

Astronomy

Oct. 29, 2012 Rise Set
Actual Time 7:40 AM CST 5:36 PM CST
Civil Twilight 7:06 AM CST 6:10 PM CST
Nautical Twilight 6:28 AM CST 6:48 PM CST
Astronomical Twilight 5:51 AM CST 7:25 PM CST
Moon 5:25 PM CST (10/29) 7:35 AM CST (10/29)
Length of Visible Light 11h 03m
Length of Day
9h 56m
Full, 100% of the Moon is Illuminated
Oct 29
Full
Oct 29
Full
Nov 6
Last Quarter
Nov 13
New
Nov 20
First Quarter

Hourly Weather History & Observations

Time (CST) Temp. Windchill Dew Point Humidity Pressure Visibility Wind Dir Wind Speed Gust Speed Precip Events Conditions
12:00 AM 28 °F - 26 °F 89% 30.06 in - ESE 18.4 mph - -  
12:00 AM 27.9 °F 15.1 °F 26.1 °F 93% 30.06 in - ESE 18.4 mph - N/A   Unknown
1:00 AM 28.4 °F 16.2 °F 26.8 °F 94% 30.06 in - ESE 17.3 mph - N/A   Unknown
2:00 AM 28.8 °F 17.5 °F 27.1 °F 94% 30.08 in - ESE 15.0 mph - N/A   Unknown
3:00 AM 28.8 °F 17.0 °F 27.5 °F 95% 30.08 in - ESE 16.1 mph - N/A   Unknown
4:00 AM 28.9 °F 17.7 °F 28.0 °F 96% 30.07 in - SE 15.0 mph - N/A   Unknown
5:00 AM 29.3 °F 18.6 °F 28.4 °F 96% 30.07 in - SE 13.8 mph - N/A   Unknown
6:00 AM 29 °F - 29 °F 100% 30.09 in - ESE 12.7 mph - -  
6:00 AM 29.5 °F 19.3 °F 28.9 °F 98% 30.09 in - ESE 12.7 mph - N/A   Unknown
7:00 AM 29.5 °F 18.4 °F 28.9 °F 98% 30.09 in - ESE 15.0 mph - N/A   Unknown
8:00 AM 29.7 °F 19.1 °F 29.3 °F 99% 30.09 in - SE 13.8 mph - N/A   Unknown
9:00 AM 30.4 °F 19.1 °F 30.0 °F 99% 30.09 in - SE 16.1 mph - N/A   Unknown
10:00 AM 31.1 °F 21.4 °F 30.6 °F 98% 30.10 in - SE 12.7 mph - N/A   Unknown
12:00 PM 32 °F - 31 °F 96% 30.10 in - SE 15.0 mph - -  
12:00 PM 31.8 °F 21.4 °F 31.3 °F 98% 30.10 in - SE 15.0 mph - N/A   Unknown
1:00 PM 32.0 °F 22.1 °F 31.5 °F 98% 30.09 in - SE 13.8 mph - N/A   Unknown
2:00 PM 31.5 °F 20.5 °F 32.0 °F 100% 30.07 in - SE 16.1 mph - N/A   Unknown
3:00 PM 31.3 °F 21.1 °F 31.8 °F 100% 30.06 in - SE 13.8 mph - N/A   Unknown
4:00 PM 31.8 °F 21.4 °F 31.8 °F 100% 30.05 in - SE 15.0 mph - N/A   Unknown
5:00 PM 31.8 °F 21.0 °F 31.6 °F 99% 30.05 in - SE 16.1 mph - N/A   Unknown
6:00 PM 32 °F - 32 °F 99% 30.07 in - SE 15.0 mph - -  
6:00 PM 31.8 °F 21.4 °F 31.8 °F 100% 30.07 in - SE 15.0 mph - N/A   Unknown
7:00 PM 31.8 °F 20.6 °F 31.8 °F 100% 30.07 in - ESE 17.3 mph - N/A   Unknown
8:00 PM 31.8 °F 21.0 °F 31.8 °F 100% 30.06 in - SE 16.1 mph - 0.01 in   Unknown
9:00 PM 31.5 °F 21.4 °F 31.6 °F 100% 30.04 in - SE 13.8 mph - N/A   Unknown
10:00 PM 33.4 °F 23.5 °F 33.1 °F 99% 30.04 in - SE 15.0 mph - N/A   Unknown